GFSNIL_prec_cloud_120.txt.gz
Cloud_Cover
99 100 100 100 100 92 100 100 44 63 100 98 96 100 100 71 100 99 100 100 100 100
58 100 100 100 98 100 83 64 74 60 100 100 100 100 100 100 100 100 100 100 100 100
100 78 100 86 100 98 100 100 100 100 100 100 100 100 100 100 100 100 100 100 100 100
100 100 100 100 100 100 100 100 100 100 100 100 100 100 100 100 100 100 100 100 100 100
100 100 100 100 100 100 100 100 100 100 100 100 100 100 100 100 100 100 100 100 100 100
100 100 100 100 100 100 100 100 100 100 100 100 100 100 100 100 100 100 100 100 100 100
100 100 100 100 100 100 100 100 100 100 100 100 100 100 100 100 100 100 100 100 100 100
100 100 100 100 100 100 100 100 100 100 100 100 100 100 100 100 100 100 100 100 100 100
100 100 100 100 100 100 100 100 100 100 100 100 100 100 100 100 100 100 100 100 100 100
100 100 100 100 100 100 97 100 100 100 100 100 100 100 100 100 100 100 100 100 96 94
100 100 100 100 100 100 100 100 100 100 100 100 76 59 90 84 37 26 5 5 5 5
99 74 42 99 89 38 73 90 16 74 100 77 29 28 80 16 5 5 5 5 5 5
100 100 100 100 100 5 22 5 20 88 17 78 36 6 46 29 5 5 5 5 5 5
100 100 100 56 78 90 39 33 53 38 5 5 5 5 51 48 5 5 5 5 5 5

GFSNIL_prec_cloud_123.txt.gz
Cloud_Cover
0 0 7 70 54 8 96 100 100 100 99 48 55 69 98 100 100 100 100 100 100 96
26 94 100 100 100 22 100 98 23 75 100 100 100 100 100 100 100 100 100 100 100 100
82 92 97 100 85 100 100 100 100 88 55 55 100 100 100 100 100 100 100 100 100 100
100 100 100 85 100 100 100 100 100 97 100 100 100 100 100 100 100 100 100 100 100 100
97 100 100 100 100 100 100 100 100 100 100 100 100 100 100 100 100 100 100 100 100 100
100 100 100 100 100 100 100 100 100 100 100 100 100 100 100 100 100 100 100 100 100 100
100 100 100 100 100 100 100 100 100 100 100 100 100 100 100 100 100 100 100 100 100 100
100 100 100 100 100 100 100 100 100 100 100 100 100 100 100 100 100 100 100 100 100 100
100 100 100 100 100 100 100 100 100 100 100 100 100 100 100 100 100 100 100 100 100 100
100 100 100 100 100 100 100 100 100 100 100 100 100 100 100 100 100 100 100 100 100 100
100 100 100 100 100 100 100 100 100 100 100 100 100 100 100 100 100 100 100 100 100 100
100 100 100 100 100 100 99 100 100 100 100 100 100 100 77 55 98 100 72 7 8 4
99 92 100 100 100 100 95 100 93 5 5 9 5 5 5 3 5 5 3 5 5 5
84 28 48 6 8 18 32 67 5 5 5 3 5 5 5 5 5 4 5 5 3 4

GFSNIL_prec_cloud_126.txt.gz
Cloud_Cover
0 0 0 0 0 0 0 1 0 1 12 0 63 52 90 61 32 48 59 78 98 100
27 15 21 0 2 44 3 60 100 96 99 100 99 100 100 61 56 100 100 100 100 100
68 19 35 36 99 100 90 34 87 100 80 78 95 100 100 100 100 100 100 100 100 100
100 100 100 100 100 100 92 96 100 100 100 100 100 98 100 100 100 100 100 100 100 100
100 100 100 100 100 100 100 100 100 100 100 100 80 100 100 100 100 100 100 100 100 100
100 100 99 96 100 100 100 100 99 100 100 100 100 100 100 100 100 100 100 100 100 100
100 100 100 100 100 100 100 100 80 100 100 100 100 100 100 100 100 100 100 100 100 100
100 100 100 100 100 100 100 100 100 100 100 100 100 100 100 100 100 100 100 100 100 100
100 100 100 100 100 100 100 100 100 100 100 100 100 100 100 100 100 100 100 100 100 100
100 100 100 100 100 100 100 100 100 100 100 100 100 100 100 100 100 100 100 100 100 100
100 100 100 100 100 100 100 100 100 100 100 100 100 100 100 100 100 100 100 100 100 100
97 86 60 100 99 51 100 100 100 100 100 100 100 100 100 100 100 100 100 100 100 100
39 90 65 7 42 98 100 100 100 100 100 100 100 100 100 100 100 100 100 97 56 7
50 99 69 50 26 5 3 5 29 9 5 18 49 11 56 23 17 5 3 2 1 2

GFSNIL_prec_cloud_129.txt.gz
Cloud_Cover
100 54 4 0 0 0 0 0 0 0 7 18 30 9 61 83 100 95 96 100 99 99
35 41 44 4 0 0 0 0 0 0 5 84 5 17 26 100 100 100 100 100 98 88
60 80 77 69 87 27 18 46 51 44 100 100 100 100 100 100 100 100 100 99 100 100
73 66 69 78 99 100 92 100 100 76 100 100 100 100 90 100 86 100 99 100 100 100
100 99 100 100 100 100 100 100 100 100 100 100 100 86 100 100 100 100 100 100 100 100
98 100 100 100 100 100 100 92 100 100 84 100 100 99 75 56 82 100 100 100 100 100
100 100 100 100 100 100 100 100 100 100 97 99 100 100 100 100 100 100 100 100 100 100
100 100 100 100 100 100 100 100 100 100 100 100 100 100 100 100 100 100 100 100 100 100
100 100 93 99 100 100 100 100 100 100 86 94 100 100 100 100 100 100 100 100 100 100
79 98 100 100 94 100 100 100 100 100 99 100 100 100 100 100 100 100 100 100 100 100
100 98 91 96 100 100 96 42 100 100 100 100 100 100 100 100 100 100 100 100 100 100
100 100 23 5 5 5 20 95 100 100 100 100 92 100 100 100 100 100 100 100 100 100
85 73 100 73 100 42 9 15 12 5 8 28 55 99 83 92 99 100 100 100 100 100
5 5 19 5 5 24 47 34 69 79 18 38 5 5 24 47 5 5 5 15 6 20